Retour au catalogue

FENGYUN 1C DEB

ActifSSO
NORAD 30542·DEBRIS·🇨🇳 China

Lancé May 10, 1999 depuis Taiyuan Satellite Launch Center

Loading…

Prochains Passages (prochaines 24 heures)

TLE

FraisSource: Space-Track

Époque: Sep 14, 2026, 20:17 UTC

1 30542U 99025AKG 26257.84547586  .00000072  00000-0  68580-4 0  9998
2 30542  98.7618 283.4239 0026846 275.4804 265.9026 14.07096122  7865

Suivez FENGYUN 1C DEB en temps réel avec AllMySat

Download on the App Store